Omak, WA

1:17 PM PDT on April 21, 2018 (GMT -0700)
Omak

Weather History for KOMK - December, 2012

Change the Weather History Date:

Sunday, December 16, 2012

  Actual Average Record
Temperature  
Mean Temperature 28 °F 25 °F  
Max Temperature 31 °F 31 °F 49 °F (1939)
Min Temperature 24 °F 19 °F -12 °F (1964)
Degree Days  
Heating Degree Days 37 40  
Month to date heating degree days 508 608  
Since 1 July heating degree days 1835 2141  
Cooling Degree Days 0 0  
Month to date cooling degree days 0 0  
Year to date cooling degree days 629 665  
Moisture  
Dew Point 26 °F    
Average Humidity 93    
Maximum Humidity 100    
Minimum Humidity 85    
Precipitation  
Precipitation 0.55 in 0.07 in 0.85 in (2002)
Month to date precipitation 1.73 1.06  
Year to date precipitation 16.54 13.61  
Sea Level Pressure  
Sea Level Pressure 29.52 in    
Wind  
Wind Speed 5 mph (WSW)    
Max Wind Speed 10 mph    
Max Gust Speed 12 mph    
Visibility 5 miles    
Events Fog , Snow    
T = Trace of Precipitation, MM = Missing Value Source: NWS Daily Summary

Daily Weather History Graph

Daily Weather History Graph

Search for Another Location

Airport or City:

Astronomy

Dec. 16, 2012 Rise Set
Actual Time 7:44 AM PST 4:03 PM PST
Civil Twilight 7:07 AM PST 4:40 PM PST
Nautical Twilight 6:27 AM PST 5:20 PM PST
Astronomical Twilight 5:49 AM PST 5:58 PM PST
Moon 10:05 AM PST (12/16) 8:40 PM PST (12/16)
Length of Visible Light 9h 33m
Length of Day
8h 19m
Waxing Crescent, 17% of the Moon is Illuminated
Dec 16
Waxing Crescent
Dec 19
First Quarter
Dec 28
Full
Jan 4
Last Quarter
Jan 11
New

Hourly Weather History & Observations

Time (PST) Temp. Windchill Dew Point Humidity Pressure Visibility Wind Dir Wind Speed Gust Speed Precip Events Conditions
12:53 AM 30.9 °F 25.2 °F 28.0 °F 89% 29.64 in 10.0 mi South 5.8 mph - N/A   Overcast
1:53 AM 30.0 °F 25.2 °F 28.0 °F 92% 29.66 in 10.0 mi South 4.6 mph - N/A   Overcast
2:53 AM 30.0 °F 24.1 °F 27.0 °F 88% 29.68 in 10.0 mi South 5.8 mph - N/A   Overcast
3:53 AM 28.9 °F 21.9 °F 26.1 °F 89% 29.70 in 10.0 mi South 6.9 mph - N/A   Overcast
4:46 AM 26.6 °F 18.2 °F 24.8 °F 93% 29.67 in 10.0 mi SSW 8.1 mph - N/A   Scattered Clouds
5:15 AM 28.4 °F 21.2 °F 24.8 °F 86% 29.68 in 10.0 mi SSW 6.9 mph - N/A   Mostly Cloudy
5:53 AM 28.0 °F 21.7 °F 25.0 °F 88% 29.73 in 10.0 mi SSW 5.8 mph - N/A   Overcast
6:53 AM 25.0 °F 19.3 °F 21.9 °F 88% 29.75 in 10.0 mi East 4.6 mph - N/A   Overcast
7:44 AM 24.8 °F 17.9 °F 21.2 °F 86% 29.70 in 10.0 mi South 5.8 mph - N/A   Scattered Clouds
7:53 AM 25.0 °F 17.1 °F 21.9 °F 88% 29.75 in 10.0 mi South 6.9 mph - N/A   Mostly Cloudy
8:53 AM 26.1 °F 18.4 °F 24.1 °F 92% 29.76 in 10.0 mi South 6.9 mph - N/A   Overcast
9:53 AM 28.0 °F - 25.0 °F 88% 29.78 in 10.0 mi Calm Calm - N/A   Overcast
10:53 AM 28.0 °F 22.8 °F 25.0 °F 88% 29.76 in 10.0 mi SSE 4.6 mph - N/A   Overcast
11:53 AM 30.0 °F 24.1 °F 27.0 °F 88% 29.75 in 10.0 mi South 5.8 mph - N/A   Overcast
12:17 PM 28.4 °F 22.2 °F 26.6 °F 93% 29.70 in 10.0 mi SSE 5.8 mph - N/A   Overcast
12:53 PM 28.9 °F 23.9 °F 26.1 °F 89% 29.73 in 10.0 mi SE 4.6 mph - N/A   Overcast
1:53 PM 30.0 °F 24.1 °F 26.1 °F 85% 29.69 in 10.0 mi South 5.8 mph - N/A   Mostly Cloudy
2:19 PM 30.2 °F 25.4 °F 26.6 °F 86% 29.63 in 10.0 mi South 4.6 mph - N/A   Overcast
2:53 PM 28.9 °F 23.9 °F 26.1 °F 89% 29.66 in 10.0 mi ESE 4.6 mph - N/A   Overcast
3:53 PM 28.9 °F 25.2 °F 25.0 °F 85% 29.63 in 10.0 mi SE 3.5 mph - N/A   Overcast
4:10 PM 28.4 °F - 24.8 °F 86% 29.58 in 1.8 mi Calm Calm - 0.00 in Snow Light Snow
4:23 PM 28.4 °F - 26.6 °F 93% 29.56 in 1.0 mi Calm Calm - 0.01 in Snow Light Snow
4:46 PM 28.4 °F 24.6 °F 26.6 °F 93% 29.54 in 1.2 mi NW 3.5 mph - 0.02 in Snow Light Snow
4:53 PM 28.0 °F - 26.1 °F 92% 29.58 in 1.5 mi Calm Calm - 0.02 in Snow Light Snow
5:39 PM 28.4 °F 24.6 °F 26.6 °F 93% 29.50 in 1.0 mi North 3.5 mph - 0.02 in Snow Light Snow
5:53 PM 28.0 °F 24.2 °F 26.1 °F 92% 29.53 in 1.0 mi NNW 3.5 mph - 0.03 in Snow Light Snow
6:06 PM 28.4 °F 22.2 °F 26.6 °F 93% 29.47 in 0.8 mi NNW 5.8 mph - 0.01 in Snow Light Snow
6:17 PM 28.4 °F 22.2 °F 26.6 °F 93% 29.46 in 1.0 mi North 5.8 mph - 0.02 in Snow Light Snow
6:25 PM 28.4 °F 23.3 °F 26.6 °F 93% 29.45 in 0.8 mi North 4.6 mph - 0.03 in Snow Light Snow
6:36 PM 28.4 °F 22.2 °F 26.6 °F 93% 29.44 in 1.0 mi North 5.8 mph - 0.04 in Snow Light Snow
6:42 PM 28.4 °F 22.2 °F 26.6 °F 93% 29.43 in 0.8 mi NNW 5.8 mph - 0.05 in Snow Light Snow
6:53 PM 28.9 °F 22.8 °F 27.0 °F 92% 29.47 in 0.8 mi North 5.8 mph - 0.06 in Snow Light Snow
7:53 PM 28.0 °F 20.8 °F 26.1 °F 92% 29.39 in 0.8 mi North 6.9 mph - 0.07 in Snow Light Snow
8:30 PM 28.4 °F 20.4 °F 26.6 °F 93% 29.31 in 1.0 mi NNW 8.1 mph - 0.05 in Snow Light Snow
8:38 PM 28.4 °F 21.2 °F 26.6 °F 93% 29.31 in 0.8 mi NNW 6.9 mph - 0.06 in Snow Light Snow
8:53 PM 28.0 °F 20.8 °F 26.1 °F 92% 29.34 in 0.8 mi North 6.9 mph - 0.08 in Snow Light Snow
9:53 PM 28.0 °F 20.8 °F 27.0 °F 96% 29.29 in 0.8 mi North 6.9 mph - 0.09 in Snow Light Snow
10:27 PM 28.4 °F 21.2 °F 26.6 °F 93% 29.23 in 0.2 mi NNW 6.9 mph - 0.08 in Fog , Snow Heavy Snow
10:46 PM 28.4 °F - 28.4 °F 100% 29.20 in 0.5 mi Calm Calm - 0.13 in Fog , Snow Snow
10:53 PM 28.9 °F 25.2 °F 28.0 °F 96% 29.24 in 0.5 mi NNW 3.5 mph - 0.15 in Fog , Snow Snow
11:04 PM 28.4 °F 24.6 °F 28.4 °F 100% 29.19 in 0.5 mi West 3.5 mph - 0.02 in Fog , Snow Snow
11:25 PM 28.4 °F 24.6 °F 26.6 °F 93% 29.18 in 1.2 mi West 3.5 mph - 0.04 in Snow Light Snow
11:32 PM 28.4 °F - 26.6 °F 93% 29.18 in 1.8 mi Calm Calm - 0.04 in Snow Light Snow
11:43 PM 28.4 °F - 26.6 °F 93% 29.18 in 1.0 mi Calm Calm - 0.05 in Snow Light Snow
11:53 PM 28.0 °F - 27.0 °F 96% 29.21 in 1.2 mi Calm Calm - 0.05 in Snow Light Snow